User: anonymous   Login
Location: *
(33.8649°S, 62.1526°E)
Time: 20:15:29
(UTC+00:00)
Language:

Cosmos 2084 Rocket - Orbit

View from above orbital plane
View from above orbital plane
View from above satellite
View from above satellite

Ground track
Ground track

The orbit data is extracted from the following two-line orbital elements,

1 20666U 90055D   21127.13616670  .00000068  00000-0  24311-4 0  9991
2 20666  62.7851  82.9512 0092996  30.2119 330.4290 14.92481644673076
Epoch (UTC): 07 May 2021 03:16:04
Eccentricity: 0.0092996
inclination: 62.7851°
perigee height: 525 km
apogee height: 655 km
right ascension of ascending node: 82.9512°
argument of perigee: 30.2119°
revolutions per day: 14.92481644
mean anomaly at epoch: 330.4290°
orbit number at epoch: 67307

The dashed part of the orbit path shows where the satellite is in the earth's shadow,  

DLR